カタログに戻る

CZ-6A DEB

運用中SSO
NORAD 54386·DEBRIS·🇨🇳 China

打ち上げ Nov 11, 2022 から Taiyuan Satellite Launch Center

Loading…

次のパス (今後24時間)

TLE

最新Source: Space-Track

元期: Sep 14, 2026, 08:56 UTC

1 54386U 22151DJ  26257.37261192  .00000703  00000-0  49064-3 0  9996
2 54386  98.9408 235.0003 0127031 200.2650 159.3446 13.98022588195203

AllMySatでCZ-6A DEBをリアルタイム追跡

Download on the App Store